TimeEST,TemperatureF,Dew PointF,Humidity,Sea Level PressureIn,VisibilityMPH,Wind Direction,Wind SpeedMPH,Gust SpeedMPH,PrecipitationIn,Events,Conditions,WindDirDegrees,DateUTC
12:54 AM,45.0,43.0,93,29.65,-9999.0,South,11.5,-,N/A,,Unknown,190,2012-11-24 05:54:00
1:54 AM,45.0,43.0,93,29.62,-9999.0,South,10.4,-,N/A,,Unknown,190,2012-11-24 06:54:00
2:54 AM,46.0,44.1,93,29.60,-9999.0,SSW,11.5,-,N/A,,Unknown,200,2012-11-24 07:54:00
3:54 AM,45.0,43.0,93,29.58,-9999.0,SW,8.1,-,N/A,,Unknown,230,2012-11-24 08:54:00
4:54 AM,45.0,43.0,93,29.58,-9999.0,WSW,9.2,-,N/A,,Unknown,250,2012-11-24 09:54:00
5:54 AM,44.1,36.0,73,29.58,-9999.0,NW,18.4,26.5,N/A,,Unknown,310,2012-11-24 10:54:00
6:54 AM,41.0,28.9,62,29.60,-9999.0,WNW,17.3,27.6,N/A,,Unknown,300,2012-11-24 11:54:00
7:54 AM,41.0,27.0,57,29.61,-9999.0,NW,17.3,28.8,N/A,,Unknown,310,2012-11-24 12:54:00
8:54 AM,39.9,23.0,51,29.62,-9999.0,West,15.0,24.2,N/A,,Unknown,280,2012-11-24 13:54:00
9:54 AM,39.9,19.9,45,29.61,-9999.0,WNW,21.9,34.5,N/A,,Unknown,290,2012-11-24 14:54:00
10:54 AM,42.1,19.9,41,29.59,-9999.0,NW,23.0,34.5,N/A,,Unknown,310,2012-11-24 15:54:00
11:54 AM,43.0,19.0,38,29.56,-9999.0,WNW,23.0,32.2,N/A,,Unknown,300,2012-11-24 16:54:00
12:54 PM,43.0,19.0,38,29.55,-9999.0,WNW,25.3,36.8,N/A,,Unknown,290,2012-11-24 17:54:00
1:54 PM,43.0,17.1,35,29.54,-9999.0,West,26.5,35.7,N/A,,Unknown,280,2012-11-24 18:54:00
2:54 PM,41.0,16.0,36,29.55,-9999.0,West,21.9,35.7,N/A,,Unknown,280,2012-11-24 19:54:00
3:54 PM,39.0,14.0,36,29.56,-9999.0,West,19.6,31.1,N/A,,Unknown,270,2012-11-24 20:54:00
4:54 PM,36.0,15.1,43,29.58,-9999.0,West,23.0,35.7,N/A,,Unknown,280,2012-11-24 21:54:00
5:54 PM,35.1,14.0,42,29.61,-9999.0,West,17.3,28.8,N/A,,Unknown,280,2012-11-24 22:54:00
6:54 PM,34.0,15.1,46,29.62,-9999.0,WNW,18.4,27.6,N/A,,Unknown,290,2012-11-24 23:54:00
7:54 PM,33.1,15.1,48,29.63,-9999.0,WNW,21.9,35.7,N/A,,Unknown,290,2012-11-25 00:54:00
8:54 PM,30.9,15.1,52,29.64,-9999.0,West,17.3,26.5,N/A,,Unknown,280,2012-11-25 01:54:00
9:54 PM,30.9,14.0,50,29.65,-9999.0,West,13.8,23.0,N/A,,Unknown,280,2012-11-25 02:54:00
10:54 PM,30.0,14.0,51,29.65,-9999.0,West,16.1,-,N/A,,Unknown,280,2012-11-25 03:54:00
11:54 PM,30.0,14.0,51,29.67,-9999.0,West,15.0,21.9,N/A,,Unknown,270,2012-11-25 04:54:00